Location: Saratoga Springs
(43.0831°N, 73.7850°W)
Time: 06:58:03
(UTC-04:00)

Vanguard 1 Rocket - Pass Details

Date: 16 April 2024
Orbit: 651 x 4220 km, 34.3° (Epoch: 20 May)

Event Time Altitude Azimuth Distance (km) Brightness Sun altitude
Rises 21:46:52 0° 252° (WSW) 3,556 10.9 -21.4°
Reaches altitude 10° 21:49:00 10° 246° (WSW) 2,845 10.2 -21.7°
Maximum altitude 21:55:38 50° 172° (S) 1,861 8.6 -22.6°
Enters shadow 22:00:12 33° 121° (ESE) 2,810 9.3 -23.2°
Drops below altitude 10° 22:08:11 10° 103° (ESE) 5,225 - -24.3°
Sets 22:13:39 0° 100° (E) 6,831 - -25.0°
